Location: Oberstdorf
(47.4188°N, 10.2969°E)
Time: 23:08:15
(UTC+01:00)

ISS - Pass Details

Date: 13 November 2017
Orbit: 402 x 407 km, 51.6° (Epoch: 23 November)

Event Time Altitude Azimuth Distance (km) Brightness Sun altitude
Exits shadow 06:35:02 11° 286° (WNW) 1,408 -1.8 -8.0°
Maximum altitude 06:38:02 44° 213° (SSW) 568 -3.2 -7.5°
Drops below altitude 10° 06:41:09 10° 140° (SE) 1,450 0.0 -7.0°
Sets 06:43:16 0° 134° (SE) 2,306 1.4 -6.6°
